DLY606 LSZB-EDXW

Flight info

Callsign DLY606
Flight time N/A
Altitude 38000
Route BERSU N871 DITON T163 ZUE T125 ROMIR N851 TEDGO/N0464F390 DCT LBU/N0464F380 N851 RIMKI Z99 ELNAT P605 LUXUX/N0463F400 P605 NORTA Z595 NIE N850 ELSOB Y348 OMWEG DCT OLDIP
Aircraft CL60/M-SBDE1E2E3FGHIJ1J4J5J7M3RWXYZ/LB1V1D1

Departure

Time 2026-05-07 10:07
Airport Bern Airport (LSZB)

Arrival

Time N/A
Airport Westerland Sylt Airport (EDXW)
Time Latitude Longitude Altitude Speed Heading
2026-05-07 09:53 46.91208 7.50180 1677 ft 0 kts 231°
2026-05-07 10:02 46.91198 7.50164 1677 ft 3 kts 225°
2026-05-07 10:02 46.91166 7.50168 1677 ft 6 kts 140°
2026-05-07 10:03 46.91121 7.50227 1677 ft 10 kts 138°
2026-05-07 10:03 46.91058 7.50301 1677 ft 12 kts 141°
2026-05-07 10:03 46.91032 7.50333 1677 ft 2 kts 141°
2026-05-07 10:03 46.91007 7.50343 1677 ft 5 kts 186°
2026-05-07 10:04 46.90956 7.50343 1677 ft 8 kts 177°
2026-05-07 10:04 46.90886 7.50364 1677 ft 11 kts 150°
2026-05-07 10:04 46.90813 7.50448 1677 ft 14 kts 139°
2026-05-07 10:04 46.90758 7.50520 1677 ft 7 kts 137°
2026-05-07 10:05 46.90734 7.50578 1677 ft 5 kts 128°
2026-05-07 10:05 46.90707 7.50570 1677 ft 4 kts 257°
2026-05-07 10:05 46.90719 7.50549 1677 ft 2 kts 354°
2026-05-07 10:05 46.90738 7.50542 1677 ft 3 kts 326°
2026-05-07 10:06 46.90747 7.50529 1677 ft 0 kts 317°
2026-05-07 10:06 46.90748 7.50528 1677 ft 0 kts 319°
2026-05-07 10:06 46.90749 7.50526 1677 ft 1 kts 319°
2026-05-07 10:06 46.90801 7.50463 1677 ft 38 kts 321°
2026-05-07 10:07 46.91282 7.49876 1677 ft 137 kts 320°
2026-05-07 10:07 46.92146 7.48813 2203 ft 175 kts 320°
2026-05-07 10:07 46.93088 7.47635 3214 ft 186 kts 321°
2026-05-07 10:07 46.94068 7.46440 4247 ft 189 kts 321°
2026-05-07 10:08 46.95064 7.45230 5242 ft 195 kts 321°
2026-05-07 10:08 46.96287 7.44370 5871 ft 201 kts 353°
2026-05-07 10:08 46.97605 7.44809 6548 ft 199 kts 32°
2026-05-07 10:08 46.98449 7.46378 7287 ft 203 kts 72°
2026-05-07 10:09 46.98621 7.48422 8059 ft 205 kts 86°
2026-05-07 10:09 46.98714 7.50513 8811 ft 206 kts 85°
2026-05-07 10:09 46.98814 7.52598 9538 ft 208 kts 85°
2026-05-07 10:09 46.98915 7.54692 10256 ft 211 kts 86°
2026-05-07 10:10 46.99017 7.56836 10982 ft 215 kts 86°
2026-05-07 10:10 46.99122 7.59035 11714 ft 219 kts 86°
2026-05-07 10:10 46.99227 7.61265 12378 ft 224 kts 86°
2026-05-07 10:10 46.99336 7.63559 13010 ft 227 kts 86°
2026-05-07 10:11 46.99445 7.65878 13642 ft 228 kts 86°
2026-05-07 10:11 46.99707 7.68134 14250 ft 229 kts 68°
2026-05-07 10:11 47.00598 7.70132 14681 ft 252 kts 50°
2026-05-07 10:11 47.01832 7.72384 14617 ft 307 kts 50°
2026-05-07 10:12 47.03258 7.75000 14665 ft 352 kts 50°
2026-05-07 10:12 47.04858 7.77953 15014 ft 379 kts 51°
2026-05-07 10:12 47.06507 7.81002 15694 ft 388 kts 51°
2026-05-07 10:12 47.08193 7.84128 16401 ft 394 kts 51°
2026-05-07 10:13 47.09915 7.87324 17113 ft 399 kts 51°
2026-05-07 10:13 47.11642 7.90535 17821 ft 403 kts 51°
2026-05-07 10:13 47.13350 7.93761 18521 ft 407 kts 53°
2026-05-07 10:13 47.14921 7.97259 19235 ft 411 kts 57°
2026-05-07 10:14 47.16460 8.00865 19952 ft 415 kts 56°
2026-05-07 10:14 47.17999 8.04467 20662 ft 419 kts 57°
2026-05-07 10:14 47.19539 8.08076 21366 ft 423 kts 56°
2026-05-07 10:14 47.21104 8.11750 22075 ft 427 kts 56°
2026-05-07 10:15 47.22676 8.15445 22781 ft 430 kts 56°
2026-05-07 10:15 47.24266 8.19186 23490 ft 433 kts 56°
2026-05-07 10:15 47.25861 8.22948 24111 ft 437 kts 56°
2026-05-07 10:15 47.27477 8.26761 24675 ft 441 kts 56°
2026-05-07 10:16 47.29109 8.30620 25238 ft 445 kts 56°
2026-05-07 10:16 47.30849 8.34373 25783 ft 447 kts 49°
2026-05-07 10:16 47.32892 8.37802 26302 ft 449 kts 46°
2026-05-07 10:16 47.34966 8.41219 26799 ft 452 kts 46°
2026-05-07 10:17 47.37072 8.44706 27284 ft 455 kts 47°
2026-05-07 10:17 47.39164 8.48176 27811 ft 455 kts 47°
2026-05-07 10:17 47.41270 8.51676 28419 ft 454 kts 47°
2026-05-07 10:17 47.43370 8.55171 29053 ft 452 kts 47°
2026-05-07 10:18 47.45438 8.58620 29670 ft 449 kts 47°
2026-05-07 10:18 47.47506 8.62072 30259 ft 447 kts 47°
2026-05-07 10:18 47.49562 8.65510 30748 ft 448 kts 48°
2026-05-07 10:18 47.51650 8.69007 31166 ft 450 kts 48°
2026-05-07 10:19 47.53726 8.72489 31550 ft 453 kts 48°
2026-05-07 10:19 47.55800 8.75972 31922 ft 455 kts 48°
2026-05-07 10:19 47.57909 8.79520 32302 ft 457 kts 48°
2026-05-07 10:19 47.59870 8.83236 32683 ft 459 kts 56°
2026-05-07 10:20 47.61583 8.87276 33051 ft 461 kts 58°